Time,TemperatureF,DewpointF,PressureIn,WindDirection,WindDirectionDegrees,WindSpeedMPH,WindSpeedGustMPH,Humidity,HourlyPrecipIn,Conditions,Clouds,dailyrainin,SoftwareType,DateUTC
2013-02-23 00:00:00,34.0,-99.9,30.31,ENE,69,12.0,15.0,-999,-99.99,,,-99.99,,2013-02-23 05:00:00,
2013-02-23 00:42:00,34.0,-99.9,30.31,ENE,69,12.0,15.0,-999,-99.99,,,-99.99,,2013-02-23 05:42:00,
2013-02-23 00:52:00,34.0,-99.9,30.31,ENE,69,12.0,15.0,-999,-99.99,,,-99.99,,2013-02-23 05:52:00,
2013-02-23 01:00:00,34.0,-99.9,30.31,ESE,110,11.0,13.0,-999,-99.99,,,-99.99,,2013-02-23 06:00:00,
2013-02-23 01:42:00,34.0,-99.9,30.31,ESE,110,11.0,13.0,-999,-99.99,,,-99.99,,2013-02-23 06:42:00,
2013-02-23 01:52:00,34.0,-99.9,30.31,ESE,110,11.0,13.0,-999,-99.99,,,-99.99,,2013-02-23 06:52:00,
2013-02-23 02:00:00,34.0,-99.9,30.31,ESE,108,10.0,14.0,-999,-99.99,,,-99.99,,2013-02-23 07:00:00,
2013-02-23 02:42:00,34.0,-99.9,30.31,ESE,108,10.0,14.0,-999,-99.99,,,-99.99,,2013-02-23 07:42:00,
2013-02-23 02:52:00,34.0,-99.9,30.31,ESE,108,10.0,14.0,-999,-99.99,,,-99.99,,2013-02-23 07:52:00,
2013-02-23 03:00:00,33.0,-99.9,30.29,ESE,105,13.0,16.0,-999,-99.99,,,-99.99,,2013-02-23 08:00:00,
2013-02-23 03:42:00,33.0,-99.9,30.29,ESE,105,13.0,16.0,-999,-99.99,,,-99.99,,2013-02-23 08:42:00,
2013-02-23 03:53:00,33.0,-99.9,30.29,ESE,105,13.0,16.0,-999,-99.99,,,-99.99,,2013-02-23 08:53:00,
2013-02-23 04:00:00,33.0,-99.9,30.27,East,89,10.0,14.0,-999,-99.99,,,-99.99,,2013-02-23 09:00:00,
2013-02-23 04:42:00,33.0,-99.9,30.27,East,89,10.0,14.0,-999,-99.99,,,-99.99,,2013-02-23 09:42:00,
2013-02-23 04:52:00,33.0,-99.9,30.27,East,89,10.0,14.0,-999,-99.99,,,-99.99,,2013-02-23 09:52:00,
2013-02-23 05:00:00,33.0,-99.9,30.28,East,97,8.0,12.0,-999,-99.99,,,-99.99,,2013-02-23 10:00:00,
2013-02-23 05:42:00,33.0,-99.9,30.28,East,97,8.0,12.0,-999,-99.99,,,-99.99,,2013-02-23 10:42:00,
2013-02-23 05:52:00,33.0,-99.9,30.28,East,97,8.0,12.0,-999,-99.99,,,-99.99,,2013-02-23 10:52:00,
2013-02-23 06:00:00,33.0,-99.9,30.27,ESE,111,10.0,13.0,-999,-99.99,,,-99.99,,2013-02-23 11:00:00,
2013-02-23 06:42:00,33.0,-99.9,30.27,ESE,111,10.0,13.0,-999,-99.99,,,-99.99,,2013-02-23 11:42:00,
2013-02-23 06:53:00,33.0,-99.9,30.27,ESE,111,10.0,13.0,-999,-99.99,,,-99.99,,2013-02-23 11:53:00,
2013-02-23 07:00:00,33.0,-99.9,30.28,ESE,115,11.0,15.0,-999,-99.99,,,-99.99,,2013-02-23 12:00:00,
2013-02-23 07:42:00,33.0,-99.9,30.28,ESE,115,11.0,15.0,-999,-99.99,,,-99.99,,2013-02-23 12:42:00,
2013-02-23 07:53:00,33.0,-99.9,30.28,ESE,115,11.0,15.0,-999,-99.99,,,-99.99,,2013-02-23 12:53:00,
2013-02-23 08:00:00,33.0,-99.9,30.27,ESE,107,11.0,15.0,-999,-99.99,,,-99.99,,2013-02-23 13:00:00,
2013-02-23 08:42:00,33.0,-99.9,30.27,ESE,107,11.0,15.0,-999,-99.99,,,-99.99,,2013-02-23 13:42:00,
2013-02-23 08:52:00,33.0,-99.9,30.27,ESE,107,11.0,15.0,-999,-99.99,,,-99.99,,2013-02-23 13:52:00,
2013-02-23 09:00:00,33.0,-99.9,30.25,ESE,109,12.0,15.0,-999,-99.99,,,-99.99,,2013-02-23 14:00:00,
2013-02-23 09:42:00,33.0,-99.9,30.25,ESE,109,12.0,15.0,-999,-99.99,,,-99.99,,2013-02-23 14:42:00,
2013-02-23 09:52:00,33.0,-99.9,30.25,ESE,109,12.0,15.0,-999,-99.99,,,-99.99,,2013-02-23 14:52:00,
2013-02-23 10:00:00,33.0,-99.9,30.23,East,95,16.0,19.0,-999,-99.99,,,-99.99,,2013-02-23 15:00:00,
2013-02-23 10:42:00,33.0,-99.9,30.23,East,95,16.0,19.0,-999,-99.99,,,-99.99,,2013-02-23 15:42:00,
2013-02-23 10:52:00,33.0,-99.9,30.23,East,95,16.0,19.0,-999,-99.99,,,-99.99,,2013-02-23 15:52:00,
2013-02-23 11:00:00,33.0,-99.9,30.23,ESE,104,15.0,19.0,-999,-99.99,,,-99.99,,2013-02-23 16:00:00,
2013-02-23 11:42:00,33.0,-99.9,30.23,ESE,104,15.0,19.0,-999,-99.99,,,-99.99,,2013-02-23 16:42:00,
2013-02-23 11:52:00,33.0,-99.9,30.23,ESE,104,15.0,19.0,-999,-99.99,,,-99.99,,2013-02-23 16:52:00,
2013-02-23 12:00:00,34.0,-99.9,30.22,ESE,110,14.0,16.0,-999,-99.99,,,-99.99,,2013-02-23 17:00:00,
2013-02-23 12:42:00,34.0,-99.9,30.22,ESE,110,14.0,16.0,-999,-99.99,,,-99.99,,2013-02-23 17:42:00,
2013-02-23 12:52:00,34.0,-99.9,30.22,ESE,110,14.0,16.0,-999,-99.99,,,-99.99,,2013-02-23 17:52:00,
2013-02-23 13:00:00,33.0,-99.9,30.20,ESE,120,15.0,19.0,-999,-99.99,,,-99.99,,2013-02-23 18:00:00,
2013-02-23 13:42:00,33.0,-99.9,30.20,ESE,120,15.0,19.0,-999,-99.99,,,-99.99,,2013-02-23 18:42:00,
2013-02-23 13:52:00,33.0,-99.9,30.20,ESE,120,15.0,19.0,-999,-99.99,,,-99.99,,2013-02-23 18:52:00,
2013-02-23 14:00:00,33.0,-99.9,30.19,ESE,116,15.0,19.0,-999,-99.99,,,-99.99,,2013-02-23 19:00:00,
2013-02-23 14:42:00,33.0,-99.9,30.19,ESE,116,15.0,19.0,-999,-99.99,,,-99.99,,2013-02-23 19:42:00,
2013-02-23 14:52:00,33.0,-99.9,30.19,ESE,116,15.0,19.0,-999,-99.99,,,-99.99,,2013-02-23 19:52:00,
2013-02-23 15:00:00,33.0,-99.9,30.19,SE,126,13.0,17.0,-999,-99.99,,,-99.99,,2013-02-23 20:00:00,
2013-02-23 15:42:00,33.0,-99.9,30.19,SE,126,13.0,17.0,-999,-99.99,,,-99.99,,2013-02-23 20:42:00,
2013-02-23 15:53:00,33.0,-99.9,30.19,SE,126,13.0,17.0,-999,-99.99,,,-99.99,,2013-02-23 20:53:00,
2013-02-23 16:00:00,33.0,-99.9,30.18,SE,144,13.0,17.0,-999,-99.99,,,-99.99,,2013-02-23 21:00:00,
2013-02-23 16:42:00,33.0,-99.9,30.18,SE,144,13.0,17.0,-999,-99.99,,,-99.99,,2013-02-23 21:42:00,
2013-02-23 16:52:00,33.0,-99.9,30.18,SE,144,13.0,17.0,-999,-99.99,,,-99.99,,2013-02-23 21:52:00,
2013-02-23 17:00:00,33.0,-99.9,30.15,SE,124,14.0,17.0,-999,-99.99,,,-99.99,,2013-02-23 22:00:00,
2013-02-23 17:42:00,33.0,-99.9,30.15,SE,124,14.0,17.0,-999,-99.99,,,-99.99,,2013-02-23 22:42:00,
2013-02-23 17:52:00,33.0,-99.9,30.15,SE,124,14.0,17.0,-999,-99.99,,,-99.99,,2013-02-23 22:52:00,
2013-02-23 18:00:00,33.0,-99.9,30.13,ESE,122,14.0,18.0,-999,-99.99,,,-99.99,,2013-02-23 23:00:00,
2013-02-23 18:42:00,33.0,-99.9,30.13,ESE,122,14.0,18.0,-999,-99.99,,,-99.99,,2013-02-23 23:42:00,
2013-02-23 18:52:00,33.0,-99.9,30.13,ESE,122,14.0,18.0,-999,-99.99,,,-99.99,,2013-02-23 23:52:00,
2013-02-23 19:00:00,32.0,-99.9,30.11,SE,127,14.0,17.0,-999,-99.99,,,-99.99,,2013-02-24 00:00:00,
2013-02-23 19:42:00,32.0,-99.9,30.11,SE,127,14.0,17.0,-999,-99.99,,,-99.99,,2013-02-24 00:42:00,
2013-02-23 19:52:00,32.0,-99.9,30.11,SE,127,14.0,17.0,-999,-99.99,,,-99.99,,2013-02-24 00:52:00,
2013-02-23 20:00:00,33.0,-99.9,30.10,SE,124,13.0,16.0,-999,-99.99,,,-99.99,,2013-02-24 01:00:00,
2013-02-23 20:42:00,33.0,-99.9,30.10,SE,124,13.0,16.0,-999,-99.99,,,-99.99,,2013-02-24 01:42:00,
2013-02-23 20:52:00,33.0,-99.9,30.10,SE,124,13.0,16.0,-999,-99.99,,,-99.99,,2013-02-24 01:52:00,
2013-02-23 21:00:00,33.0,-99.9,30.08,ESE,120,14.0,17.0,-999,-99.99,,,-99.99,,2013-02-24 02:00:00,
2013-02-23 21:42:00,33.0,-99.9,30.08,ESE,120,14.0,17.0,-999,-99.99,,,-99.99,,2013-02-24 02:42:00,
2013-02-23 21:52:00,33.0,-99.9,30.08,ESE,120,14.0,17.0,-999,-99.99,,,-99.99,,2013-02-24 02:52:00,
2013-02-23 22:00:00,34.0,-99.9,30.07,SE,146,10.0,14.0,-999,-99.99,,,-99.99,,2013-02-24 03:00:00,
2013-02-23 22:42:00,34.0,-99.9,30.07,SE,146,10.0,14.0,-999,-99.99,,,-99.99,,2013-02-24 03:42:00,
2013-02-23 22:52:00,34.0,-99.9,30.07,SE,146,10.0,14.0,-999,-99.99,,,-99.99,,2013-02-24 03:52:00,
2013-02-23 23:00:00,34.0,-99.9,30.03,SE,124,8.0,11.0,-999,-99.99,,,-99.99,,2013-02-24 04:00:00,
2013-02-23 23:42:00,34.0,-99.9,30.03,SE,124,8.0,11.0,-999,-99.99,,,-99.99,,2013-02-24 04:42:00,
2013-02-23 23:52:00,34.0,-99.9,30.03,SE,124,8.0,11.0,-999,-99.99,,,-99.99,,2013-02-24 04:52:00,